Погода в Свердловском

Россия / Оренбургская область     52°39′37″N   53°40′33″E
темп.,
°C
ветер,
м/с
пор.,
м/с
влажн.,
%
обл.,
%
осадки,
мм/ч
давл.,
гПа
погр.,
м
25 января, вт
вт2523:00−17в2291100 0.0 103712
02:00−19вюв2292100 0.0 103611
05:00−19юв229398 0.0 103615
08:00−22в219516 0.0 10359
11:00−19вюв129359 0.0 103439
14:00−13юв128923 0.0 103379
17:00−15вюв229556 0.0 103110
20:00−19вюв2210099 0.0 103110
26 января, ср
ср2623:00−21вюв22100100 0.0 103012
02:00−21вюв2210055 0.0 102912
05:00−21вюв2210069 0.0 102715
08:00−19в22100100 0.0 102626
11:00−12вюв41095100 0.1 1024224
14:00−9юв51195100 0.6 1022345
17:00−8ююв4995100 1.7 1021386
20:00−7ююв3896100 1.0 1020353
27 января, чт
чт2723:00−6ю269787 1.6 1021163
02:00−8ююз3598100 0.1 102268
05:00−10ю2397100 0.1 102341
08:00−11ю239870 0.1 102339
11:00−15ю1110099 0.1 102512
14:00−9ююз119640 0.0 102460
17:00−13в119842 0.0 102410
20:00−18всв1110097 0.0 10259
28 января, пт
пт2823:00−17всв11100100 0.1 102410
02:00−9ссв1296100 0.1 102251
05:00−6св2597100 0.3 1021152
08:00−5всв3697100 0.6 1019166
11:00−5в489496 0.8 1019312
14:00−5вюв4988100 0.0 1018389
17:00−6в4890100 0.0 1018294
20:00−8в3993100 0.0 1017205
29 января, сб
сб2923:00−10вюв2494100 0.0 101663
02:00−11вюв3892100 0.0 1016168
05:00−12вюв2495100 0.1 101588
08:00−12вюв2197100 0.4 101424
11:00−11ююв259687 0.5 1014134
14:00−9ю3594100 0.1 1014213
17:00−10ююв3597100 0.1 1014108
20:00−10юв279687 0.1 1013153